Weather History for Glendive, MT

Change the Weather History Date:

Tuesday, April 9, 2013

  Actual Average Record
Temperature  
Mean Temperature 19 °F -  
Max Temperature 30 °F 49 °F 78 °F (2003)
Min Temperature 8 °F 27 °F 8 °F (1997)
Degree Days  
Heating Degree Days 46    
Moisture  
Dew Point 11 °F    
Average Humidity 73    
Maximum Humidity 92    
Minimum Humidity 59    
Precipitation  
Precipitation 0.00 in - - ()
Sea Level Pressure  
Sea Level Pressure 30.41 in    
Wind  
Wind Speed 8 mph (NNW)    
Max Wind Speed 13 mph    
Max Gust Speed 17 mph    
Visibility 10 miles    
Events      
Averages and records for this station are not official NWS values.
T = Trace of Precipitation, MM = Missing Value Source: NWS Daily Summary

Daily Weather History Graph

Daily Weather History Graph

Search for Another Location

Airport:

Trip Planner

Search our weather history database for the weather conditions in past years. The results will help you decide how hot, cold, wet, or windy it might be!

Date:

Astronomy

Apr. 09, 2013 Rise Set
Actual Time 6:22 AM MDT 7:40 PM MDT
Civil Twilight 5:50 AM MDT 8:11 PM MDT
Nautical Twilight 5:12 AM MDT 8:50 PM MDT
Astronomical Twilight 4:31 AM MDT 9:30 PM MDT
Moon 5:47 AM MDT (4/9) 7:19 PM MDT (4/9)
Length of Visible Light 14h 21m
Length of Day
13h 18m
Waning Crescent, 0% of the Moon is Illuminated
Apr 9
Waning Crescent
Apr 10
New
Apr 18
First Quarter
Apr 25
Full
May 2
Last Quarter

Hourly Weather History & Observations

Time (MDT) Temp. Windchill Dew Point Humidity Pressure Visibility Wind Dir Wind Speed Gust Speed Precip Events Conditions
12:15 AM 12.2 °F -0.2 °F 6.8 °F 79% 30.38 in 10.0 mi North 9.2 mph - N/A   Clear
12:35 AM 12.2 °F -0.2 °F 6.8 °F 79% 30.37 in 10.0 mi North 9.2 mph - N/A   Clear
12:55 AM 12.2 °F -0.2 °F 6.8 °F 79% 30.37 in 10.0 mi North 9.2 mph - N/A   Clear
1:15 AM 12.2 °F -0.2 °F 6.8 °F 79% 30.37 in 10.0 mi North 9.2 mph - N/A   Clear
2:15 AM 8.6 °F 0.1 °F 3.2 °F 79% 30.40 in 10.0 mi NNW 4.6 mph - N/A   Clear
2:35 AM 8.6 °F -3.7 °F 5.0 °F 85% 30.37 in 10.0 mi NNW 8.1 mph - N/A   Clear
2:55 AM 8.6 °F -4.7 °F 3.2 °F 79% 30.38 in 10.0 mi NNW 9.2 mph - N/A   Clear
3:15 AM 8.6 °F -3.7 °F 5.0 °F 85% 30.39 in 10.0 mi NW 8.1 mph - N/A   Clear
3:35 AM 8.6 °F -2.6 °F 5.0 °F 85% 30.40 in 10.0 mi NW 6.9 mph - N/A   Clear
3:55 AM 8.6 °F 2.0 °F 5.0 °F 85% 30.41 in 10.0 mi NW 3.5 mph - N/A   Clear
4:15 AM 8.6 °F -3.7 °F 6.8 °F 92% 30.39 in 10.0 mi NW 8.1 mph - N/A   Clear
4:35 AM 10.4 °F 0.8 °F 3.2 °F 73% 30.40 in 10.0 mi NW 5.8 mph - N/A   Clear
4:55 AM 8.6 °F 0.1 °F 3.2 °F 79% 30.41 in 10.0 mi NW 4.6 mph - N/A   Clear
5:15 AM 8.6 °F 0.1 °F 5.0 °F 85% 30.41 in 10.0 mi WNW 4.6 mph - N/A   Clear
5:35 AM 8.6 °F -1.3 °F 3.2 °F 79% 30.42 in 10.0 mi NW 5.8 mph - N/A   Clear
5:55 AM 8.6 °F -1.3 °F 3.2 °F 79% 30.43 in 10.0 mi NW 5.8 mph - N/A   Clear
6:15 AM 10.4 °F 0.8 °F 3.2 °F 73% 30.43 in 10.0 mi NW 5.8 mph - N/A   Clear
6:35 AM 8.6 °F -2.6 °F 3.2 °F 79% 30.43 in 10.0 mi NW 6.9 mph - N/A   Clear
6:55 AM 10.4 °F -2.4 °F 5.0 °F 79% 30.43 in 10.0 mi NNW 9.2 mph - N/A   Clear
7:15 AM 10.4 °F -1.5 °F 5.0 °F 79% 30.43 in 10.0 mi NW 8.1 mph - N/A   Clear
7:35 AM 10.4 °F -2.4 °F 6.8 °F 85% 30.45 in 10.0 mi NNW 9.2 mph - N/A   Clear
7:55 AM 12.2 °F 1.7 °F 6.8 °F 79% 30.46 in 10.0 mi NW 6.9 mph - N/A   Clear
8:15 AM 12.2 °F -1.0 °F 8.6 °F 85% 30.46 in 10.0 mi NW 10.4 mph - N/A   Clear
8:35 AM 12.2 °F -1.8 °F 8.6 °F 85% 30.45 in 10.0 mi NW 11.5 mph - N/A   Clear
8:55 AM 12.2 °F -1.0 °F 8.6 °F 85% 30.46 in 10.0 mi NW 10.4 mph - N/A   Clear
9:15 AM 14.0 °F 2.9 °F 8.6 °F 79% 30.47 in 10.0 mi NW 8.1 mph - N/A   Clear
10:15 AM 15.8 °F 5.1 °F 8.6 °F 73% 30.48 in 10.0 mi NNW 8.1 mph - N/A   Partly Cloudy
10:35 AM 15.8 °F 5.1 °F 10.4 °F 79% 30.48 in 10.0 mi NW 8.1 mph - N/A   Mostly Cloudy
10:55 AM 17.6 °F 8.2 °F 8.6 °F 68% 30.47 in 10.0 mi North 6.9 mph - N/A   Mostly Cloudy
11:15 AM 17.6 °F 7.3 °F 10.4 °F 73% 30.48 in 10.0 mi North 8.1 mph - N/A   Mostly Cloudy
11:35 AM 17.6 °F 6.4 °F 8.6 °F 68% 30.47 in 10.0 mi NW 9.2 mph - N/A   Mostly Cloudy
12:15 PM 19.4 °F 10.4 °F 12.2 °F 74% 30.48 in 10.0 mi NW 6.9 mph - N/A   Mostly Cloudy
12:35 PM 21.2 °F 10.9 °F 10.4 °F 63% 30.47 in 10.0 mi NW 9.2 mph - N/A   Mostly Cloudy
12:55 PM 21.2 °F 10.9 °F 15.8 °F 80% 30.47 in 10.0 mi NW 9.2 mph - N/A   Mostly Cloudy
1:15 PM 21.2 °F 12.6 °F 12.2 °F 68% 30.46 in 10.0 mi North 6.9 mph - N/A   Overcast
1:35 PM 23.0 °F 12.4 °F 12.2 °F 63% 30.45 in 10.0 mi North 10.4 mph - N/A   Mostly Cloudy
1:55 PM 24.8 °F 15.3 °F 12.2 °F 59% 30.45 in 10.0 mi NNE 9.2 mph 16.1 mph N/A   Partly Cloudy
2:15 PM 24.8 °F 14.0 °F 12.2 °F 59% 30.44 in 10.0 mi North 11.5 mph 17.3 mph N/A   Partly Cloudy
2:35 PM 26.6 °F 17.5 °F 15.8 °F 64% 30.44 in 10.0 mi North 9.2 mph - N/A   Partly Cloudy
2:55 PM 26.6 °F 19.1 °F 14.0 °F 59% 30.44 in 10.0 mi North 6.9 mph - N/A   Mostly Cloudy
3:15 PM 26.6 °F 17.5 °F 15.8 °F 64% 30.43 in 10.0 mi North 9.2 mph - N/A   Mostly Cloudy
3:35 PM 26.6 °F 16.8 °F 15.8 °F 64% 30.42 in 10.0 mi NNW 10.4 mph 16.1 mph N/A   Mostly Cloudy
3:55 PM 26.6 °F 18.2 °F 17.6 °F 69% 30.41 in 10.0 mi North 8.1 mph - N/A   Mostly Cloudy
4:15 PM 28.4 °F 19.1 °F 15.8 °F 59% 30.40 in 10.0 mi North 10.4 mph - N/A   Scattered Clouds
4:35 PM 28.4 °F 18.5 °F 17.6 °F 64% 30.40 in 10.0 mi North 11.5 mph - N/A   Mostly Cloudy
4:55 PM 28.4 °F 18.0 °F 15.8 °F 59% 30.40 in 10.0 mi North 12.7 mph - N/A   Mostly Cloudy
5:15 PM 28.4 °F 19.1 °F 17.6 °F 64% 30.40 in 10.0 mi NNE 10.4 mph - N/A   Mostly Cloudy
5:35 PM 28.4 °F 18.5 °F 17.6 °F 64% 30.39 in 10.0 mi North 11.5 mph - N/A   Overcast
5:55 PM 28.4 °F 19.1 °F 17.6 °F 64% 30.39 in 10.0 mi North 10.4 mph - N/A   Mostly Cloudy
6:15 PM 30.2 °F 21.3 °F 17.6 °F 60% 30.39 in 10.0 mi North 10.4 mph - N/A   Scattered Clouds
6:35 PM 30.2 °F 21.9 °F 17.6 °F 60% 30.39 in 10.0 mi North 9.2 mph - N/A   Mostly Cloudy
6:55 PM 30.2 °F 21.9 °F 17.6 °F 60% 30.39 in 10.0 mi North 9.2 mph - N/A   Mostly Cloudy
7:15 PM 28.4 °F 23.3 °F 17.6 °F 64% 30.39 in 10.0 mi East 4.6 mph - N/A   Overcast
7:35 PM 28.4 °F - 17.6 °F 64% 30.38 in 10.0 mi Calm Calm - N/A   Overcast
7:55 PM 28.4 °F - 17.6 °F 64% 30.37 in 10.0 mi Calm Calm - N/A   Mostly Cloudy
8:15 PM 28.4 °F - 17.6 °F 64% 30.37 in 10.0 mi Calm Calm - N/A   Clear
8:35 PM 26.6 °F - 17.6 °F 69% 30.37 in 10.0 mi Calm Calm - N/A   Clear
8:55 PM 24.8 °F - 17.6 °F 74% 30.38 in 10.0 mi Calm Calm - N/A   Clear
9:15 PM 24.8 °F - 17.6 °F 74% 30.38 in 10.0 mi Calm Calm - N/A   Clear
10:15 PM 24.8 °F 20.5 °F 17.6 °F 74% 30.38 in 10.0 mi NE 3.5 mph - N/A   Clear
10:35 PM 24.8 °F 19.1 °F 15.8 °F 69% 30.38 in 10.0 mi NNE 4.6 mph - N/A   Clear
10:55 PM 21.2 °F 14.9 °F 15.8 °F 80% 30.37 in 10.0 mi NNE 4.6 mph - N/A   Clear
11:15 PM 21.2 °F 16.4 °F 15.8 °F 80% 30.37 in 10.0 mi NNE 3.5 mph - N/A   Clear
11:35 PM 21.2 °F - 15.8 °F 80% 30.37 in 10.0 mi Calm Calm - N/A   Clear
11:55 PM 19.4 °F - 15.8 °F 86% 30.37 in 10.0 mi Calm Calm - N/A   Clear